COSMOS 2547 (705K)

Last updated on Thu Nov 21 2024 00:03:12 GMT+0000 (Coordinated Universal Time)

1 46805U 20075A 24325.03696081 .00000010 00000+0 00000+0 0 9995 2 46805 64.5960 211.6545 0006441 235.7248 124.2928 2.13102779 31672
UTC large
Height (km)
Speed (km/s)
/
Latitude / Longitude
Inclination (degrees)
Orbital Period (minutes)
Azimuth
Elevation
Range (km)
Doppler Factor

Next 0 passes for location: London (51.5072 / 0.1276)

Sorry there are no passes over London.